Location: Colonia Mina de C?rbuni
(46.1667°N, 22.7167°E)
Time: 16:09:29
(UTC+00:00)

Courier 1B - Pass Details

Date: 30 April 2024
Orbit: 962 x 1208 km, 28.3° (Epoch: 23 May)

Event Time Altitude Azimuth Distance (km) Brightness Sun altitude
Rises 22:30:02 0° 243° (WSW) 4,105 - -28.7°
Reaches altitude 10° 22:33:48 10° 227° (SW) 3,139 - -28.7°
Maximum altitude 22:39:02 20° 185° (S) 2,470 - -28.6°
Drops below altitude 10° 22:44:13 10° 142° (SE) 3,085 - -28.5°
Sets 22:47:52 0° 126° (SE) 4,011 - -28.5°
